Find Starlink 31899

NORAD ID: 59850 Int'l Des: 2024-097 Owner: SPXS Country: US Constellation: starlink operational
LEOCIRCULAR

現在のビュー

3D地球を読み込み中...

Starlink 31899について

説明を読み込み中...

次回通過

Passes for default location (London). Set your location on the main map for personalized predictions.

高度履歴

Loading altitude history...

軌道要素

1 59850U 24097R 26157.65478728 -.00000558 00000-0 -10737-4 0 9999
2 59850 43.0038 131.8639 0001486 271.2091 88.8590 15.27580628115525
Epoch: Jun 6, 2026 • Age: 56 hours

現在のステータス

高度 495.1 km
速度 7.62 km/s
衛星直下点 -42.52°S, 145.56°E
打ち上げ日 May 23, 2024
運用期間 2 years
タイプ internet

技術仕様

分類 Payload
質量 730.00 kg
乾燥質量 700.00 kg
総質量 730.00 kg
長さ 0.30 m
直径 4.10 m
スパン 29.00 m
形状 Box + pan
製造者 SPXS
バスタイプ Starlink V2M
フェーズステータス In Orbit
所有者/国 SPXS/US

Most Searched